SB KEPS @ AMSAT $ORB13143.O Orbital Elements 13143.OSCAR
HR AMSAT ORBITAL ELEMENTS FOR OSCAR SATELLITES FROM WA5QGD FORT WORTH,TX May 23, 2013 BID: ORB13143.O TO ALL RADIO AMATEURS BT
Satellite: AO-07 Catalog number: 07530 Epoch time: 13143.61942390 Element set: 687 Inclination: 101.4291 deg RA of node: 134.0188 deg Eccentricity: 0.0011658 Arg of perigee: 338.6829 deg Mean anomaly: 132.6668 deg Mean motion: 12.53596416 rev/day Decay rate: -4.2e-07 rev/day^2 Epoch rev: 76270 Checksum: 306
Satellite: FO-29 Catalog number: 24278 Epoch time: 13142.17246623 Element set: 122 Inclination: 098.5574 deg RA of node: 204.2159 deg Eccentricity: 0.0349890 Arg of perigee: 231.4190 deg Mean anomaly: 140.5682 deg Mean motion: 13.53000488 rev/day Decay rate: 4.4e-07 rev/day^2 Epoch rev: 82779 Checksum: 305
Satellite: SO-33 Catalog number: 25509 Epoch time: 13142.63403182 Element set: 501 Inclination: 031.4317 deg RA of node: 212.3026 deg Eccentricity: 0.0351341 Arg of perigee: 294.1775 deg Mean anomaly: 225.0137 deg Mean motion: 14.29067930 rev/day Decay rate: 4.70e-06 rev/day^2 Epoch rev: 76123 Checksum: 259
Satellite: RS-22 Catalog number: 27939 Epoch time: 13143.51660915 Element set: 436 Inclination: 097.7981 deg RA of node: 332.6550 deg Eccentricity: 0.0012195 Arg of perigee: 266.2457 deg Mean anomaly: 093.7356 deg Mean motion: 14.64446800 rev/day Decay rate: 7.65e-06 rev/day^2 Epoch rev: 51568 Checksum: 330
Satellite: VO-52 Catalog number: 28650 Epoch time: 13143.10047440 Element set: 429 Inclination: 097.5682 deg RA of node: 162.9895 deg Eccentricity: 0.0025661 Arg of perigee: 007.1062 deg Mean anomaly: 029.1088 deg Mean motion: 14.83847612 rev/day Decay rate: 1.883e-05 rev/day^2 Epoch rev: 43536 Checksum: 310
Satellite: HO-68 Catalog number: 36122 Epoch time: 13143.72769537 Element set: 574 Inclination: 100.3080 deg RA of node: 201.3962 deg Eccentricity: 0.0007863 Arg of perigee: 051.7934 deg Mean anomaly: 308.3891 deg Mean motion: 13.16304321 rev/day Decay rate: -4.4e-07 rev/day^2 Epoch rev: 16519 Checksum: 288
/EX SB KEPS @ AMSAT $ORB13143.D Orbital Elements 13143.MICROS
HR AMSAT ORBITAL ELEMENTS FOR THE MICROSATS FROM WA5QGD FORT WORTH,TX May 23, 2013 BID: ORB13143.D TO ALL RADIO AMATEURS BT
Satellite: UO-11 Catalog number: 14781 Epoch time: 13143.17519605 Element set: 186 Inclination: 097.9047 deg RA of node: 204.8422 deg Eccentricity: 0.0008783 Arg of perigee: 019.6238 deg Mean anomaly: 340.5311 deg Mean motion: 14.80883053 rev/day Decay rate: 7.52e-06 rev/day^2 Epoch rev: 57023 Checksum: 295
Satellite: AO-16 Catalog number: 20439 Epoch time: 13142.78702884 Element set: 752 Inclination: 098.4699 deg RA of node: 083.4054 deg Eccentricity: 0.0010121 Arg of perigee: 229.0070 deg Mean anomaly: 163.9188 deg Mean motion: 14.32172847 rev/day Decay rate: 1.42e-06 rev/day^2 Epoch rev: 21860 Checksum: 297
Satellite: LO-19 Catalog number: 20442 Epoch time: 13142.83393564 Element set: 686 Inclination: 098.4388 deg RA of node: 085.3179 deg Eccentricity: 0.0011254 Arg of perigee: 219.2644 deg Mean anomaly: 198.3315 deg Mean motion: 14.32384023 rev/day Decay rate: 1.25e-06 rev/day^2 Epoch rev: 21880 Checksum: 305
Satellite: AO-27 Catalog number: 22825 Epoch time: 13142.79255275 Element set: 389 Inclination: 098.6167 deg RA of node: 087.0875 deg Eccentricity: 0.0008340 Arg of perigee: 011.4210 deg Mean anomaly: 021.2971 deg Mean motion: 14.29562259 rev/day Decay rate: 1.16e-06 rev/day^2 Epoch rev: 2500 Checksum: 289
Satellite: IO-26 Catalog number: 22826 Epoch time: 13142.80301522 Element set: 146 Inclination: 098.6108 deg RA of node: 087.3898 deg Eccentricity: 0.0008748 Arg of perigee: 003.9375 deg Mean anomaly: 058.2006 deg Mean motion: 14.29846255 rev/day Decay rate: 1.32e-06 rev/day^2 Epoch rev: 2513 Checksum: 294
Satellite: GO-32 Catalog number: 25397 Epoch time: 13141.96358209 Element set: 76 Inclination: 098.4123 deg RA of node: 110.8656 deg Eccentricity: 0.0001799 Arg of perigee: 058.8385 deg Mean anomaly: 333.4977 deg Mean motion: 14.23340445 rev/day Decay rate: 4.4e-07 rev/day^2 Epoch rev: 77221 Checksum: 317
Satellite: NO-44 Catalog number: 26931 Epoch time: 13143.77940825 Element set: 333 Inclination: 067.0528 deg RA of node: 322.4274 deg Eccentricity: 0.0007291 Arg of perigee: 283.4743 deg Mean anomaly: 196.0899 deg Mean motion: 14.29924622 rev/day Decay rate: 1.27e-06 rev/day^2 Epoch rev: 60793 Checksum: 322
Satellite: SO-50 Catalog number: 27607 Epoch time: 13142.79594476 Element set: 71 Inclination: 064.5577 deg RA of node: 341.4350 deg Eccentricity: 0.0048381 Arg of perigee: 172.0746 deg Mean anomaly: 273.3075 deg Mean motion: 14.72920279 rev/day Decay rate: 8.36e-06 rev/day^2 Epoch rev: 55997 Checksum: 334
Satellite: CO-55 Catalog number: 27844 Epoch time: 13143.06337640 Element set: 654 Inclination: 098.7004 deg RA of node: 152.5018 deg Eccentricity: 0.0008766 Arg of perigee: 327.2624 deg Mean anomaly: 065.6286 deg Mean motion: 14.21214922 rev/day Decay rate: 2.83e-06 rev/day^2 Epoch rev: 51316 Checksum: 294
Satellite: CO-57 Catalog number: 27848 Epoch time: 13142.71237139 Element set: 599 Inclination: 098.7091 deg RA of node: 151.6546 deg Eccentricity: 0.0008811 Arg of perigee: 334.7997 deg Mean anomaly: 086.2100 deg Mean motion: 14.20940914 rev/day Decay rate: 2.15e-06 rev/day^2 Epoch rev: 51304 Checksum: 312
Satellite: AO-51 Catalog number: 28375 Epoch time: 13143.80487812 Element set: 564 Inclination: 098.1994 deg RA of node: 100.2453 deg Eccentricity: 0.0084806 Arg of perigee: 090.1008 deg Mean anomaly: 301.9717 deg Mean motion: 14.41114441 rev/day Decay rate: 3.21e-06 rev/day^2 Epoch rev: 46782 Checksum: 291
Satellite: CP3 Catalog number: 31129 Epoch time: 13142.71828561 Element set: 467 Inclination: 097.8962 deg RA of node: 136.7976 deg Eccentricity: 0.0101501 Arg of perigee: 146.1406 deg Mean anomaly: 269.0916 deg Mean motion: 14.53631123 rev/day Decay rate: 8.28e-06 rev/day^2 Epoch rev: 32329 Checksum: 303
Satellite: CO-65 Catalog number: 32785 Epoch time: 13142.81936840 Element set: 638 Inclination: 097.7535 deg RA of node: 201.0738 deg Eccentricity: 0.0014823 Arg of perigee: 036.4387 deg Mean anomaly: 027.9798 deg Mean motion: 14.83845641 rev/day Decay rate: 1.753e-05 rev/day^2 Epoch rev: 27411 Checksum: 335
Satellite: PRISM Catalog number: 33493 Epoch time: 13143.77145747 Element set: 832 Inclination: 098.2135 deg RA of node: 299.9018 deg Eccentricity: 0.0016958 Arg of perigee: 271.4415 deg Mean anomaly: 088.4860 deg Mean motion: 14.85896626 rev/day Decay rate: 3.843e-05 rev/day^2 Epoch rev: 23429 Checksum: 343
Satellite: SOHLA-1 Catalog number: 33496 Epoch time: 13143.78479873 Element set: 52 Inclination: 098.1327 deg RA of node: 259.8706 deg Eccentricity: 0.0007155 Arg of perigee: 049.8072 deg Mean anomaly: 098.2312 deg Mean motion: 14.70282699 rev/day Decay rate: 5.45e-06 rev/day^2 Epoch rev: 23228 Checksum: 327
Satellite: SO-67 Catalog number: 35870 Epoch time: 13143.93095811 Element set: 84 Inclination: 097.1930 deg RA of node: 173.5450 deg Eccentricity: 0.0003584 Arg of perigee: 066.6653 deg Mean anomaly: 054.5332 deg Mean motion: 15.26945049 rev/day Decay rate: 7.576e-05 rev/day^2 Epoch rev: 20455 Checksum: 319
Satellite: TISAT-1 Catalog number: 36799 Epoch time: 13143.83331853 Element set: 102 Inclination: 098.0334 deg RA of node: 228.3772 deg Eccentricity: 0.0015363 Arg of perigee: 143.7467 deg Mean anomaly: 216.4774 deg Mean motion: 14.83260596 rev/day Decay rate: 3.450e-05 rev/day^2 Epoch rev: 15496 Checksum: 313
Satellite: STUDSAT Catalog number: 36801 Epoch time: 13142.85134332 Element set: 633 Inclination: 098.0455 deg RA of node: 230.3001 deg Eccentricity: 0.0013028 Arg of perigee: 130.8766 deg Mean anomaly: 008.2077 deg Mean motion: 14.88138481 rev/day Decay rate: 7.981e-05 rev/day^2 Epoch rev: 15496 Checksum: 283
Satellite: ALMASAT-1 Catalog number: 38078 Epoch time: 13143.76063030 Element set: 291 Inclination: 069.4774 deg RA of node: 257.6836 deg Eccentricity: 0.0701445 Arg of perigee: 178.4563 deg Mean anomaly: 181.8946 deg Mean motion: 14.23605596 rev/day Decay rate: 4.4831e-04 rev/day^2 Epoch rev: 6576 Checksum: 335
Satellite: XATCOBEO Catalog number: 38082 Epoch time: 13143.70857414 Element set: 171 Inclination: 069.4728 deg RA of node: 235.7295 deg Eccentricity: 0.0588200 Arg of perigee: 166.4953 deg Mean anomaly: 195.2685 deg Mean motion: 14.52829720 rev/day Decay rate: 1.13180e-03 rev/day^2 Epoch rev: 6636 Checksum: 321
Satellite: SOMP Catalog number: 39135 Epoch time: 13143.54785338 Element set: 65 Inclination: 064.8775 deg RA of node: 285.9435 deg Eccentricity: 0.0016291 Arg of perigee: 206.6089 deg Mean anomaly: 153.4693 deg Mean motion: 15.00115783 rev/day Decay rate: 6.468e-05 rev/day^2 Epoch rev: 513 Checksum: 313
Satellite: CUBEBUG-1 Catalog number: 39153 Epoch time: 13143.39882754 Element set: 86 Inclination: 098.0751 deg RA of node: 219.1460 deg Eccentricity: 0.0018931 Arg of perigee: 159.3780 deg Mean anomaly: 200.8189 deg Mean motion: 14.76388703 rev/day Decay rate: 1.949e-05 rev/day^2 Epoch rev: 402 Checksum: 313
Satellite: ESTCUBE-1 Catalog number: 39161 Epoch time: 13143.84649077 Element set: 51 Inclination: 098.1280 deg RA of node: 222.2311 deg Eccentricity: 0.0009734 Arg of perigee: 184.5091 deg Mean anomaly: 175.6029 deg Mean motion: 14.68929255 rev/day Decay rate: 1.487e-05 rev/day^2 Epoch rev: 242 Checksum: 294
/EX SB KEPS @ AMSAT $ORB13143.W Orbital Elements 13143.WEATHER
HR AMSAT ORBITAL ELEMENTS FOR WEATHER SATELLITES FROM WA5QGD FORT WORTH,TX May 23, 2013 BID: ORB13143.W TO ALL RADIO AMATEURS BT
Satellite: NOAA-10 Catalog number: 16969 Epoch time: 13143.37686507 Element set: 362 Inclination: 098.5467 deg RA of node: 171.7542 deg Eccentricity: 0.0011207 Arg of perigee: 322.0396 deg Mean anomaly: 093.7841 deg Mean motion: 14.27639317 rev/day Decay rate: 9.9e-07 rev/day^2 Epoch rev: 38840 Checksum: 326
